Weather in Bogoslovskoye

Russia / Tula Oblast     54°46′06″N   37°59′48″E
temp.,
°C
wind,
m/s
gust,
m/s
humid.,
%
clouds,
%
prec.,
mm/h
press.,
hPa
HPBL,
m
19 september, sun
sun1900:00+6e71464100 0.0 1022493
03:00+6e61464100 0.0 1021499
06:00+5e61375100 0.6 1021568
09:00+4e71589100 2.9 1021617
12:00+4e81690100 2.6 1020635
15:00+5e81689100 6.1 1019686
18:00+6e81687100 5.2 1018756
21:00+6e91792100 12.6 1017729
20 september, mon
mon2000:00+5e91793100 5.5 1016719
03:00+5e81695100 8.8 1014844
06:00+6e81595100 2.0 1014879
09:00+6e81494100 2.9 1014853
12:00+6e81494100 0.2 1014857
15:00+6e81393100 0.2 1014890
18:00+6e91493100 0.4 1014904
21:00+5e91593100 0.6 1014825
21 september, tue
tue2100:00+5e81594100 1.2 1013782
03:00+5e81595100 5.1 1012734
06:00+6e71297100 2.6 1012590
09:00+6e51097100 2.9 1012438
12:00+6e5997100 2.3 1012489
15:00+7e4797100 3.6 1011336
18:00+8ene4799100 1.1 1011311
21:00+8e2499100 2.1 1011173
22 september, wed
wed2200:00+8e359996 0.2 1011168
03:00+7ene4697100 0.4 1011389
06:00+7ne3798100 0.5 1011329
09:00+7ne4797100 0.6 1011396
12:00+6ne4695100 0.2 1011504
15:00+7nne4591100 0.3 1010588
18:00+6nne3494100 0.0 1011378
21:00+6nne2396100 0.1 1011212
23 september, thu
thu2300:00+6ene1296100 0.1 1011148
03:00+6e1196100 0.1 101044
06:00+6e1296100 0.2 101098
09:00+8s4887100 0.7 1011531
12:00+11ssw4566100 0.2 10101334
15:00+10ssw3473100 0.8 1010750
18:00+8ssw2384100 0.7 101068
21:00+7sw3690100 1.0 1010177